Location: ??????
(55.7522°N, 37.6156°E)
Time: 17:38:30
(UTC+00:00)

Cosmos 2219 - Pass Details

Date: 14 June 2025
Orbit: 832 x 859 km, 71.1° (Epoch: 13 July)

Event Time Altitude Azimuth Distance (km) Brightness Sun altitude
Rises 20:21:06 0° 212° (SSW) 3,418 6.0 -9.6°
Reaches altitude 10° 20:23:33 10° 213° (SSW) 2,488 5.3 -9.7°
Maximum altitude 20:29:17 89° 301° (WNW) 868 3.3 -9.9°
Drops below altitude 10° 20:35:05 10° 34° (NE) 2,508 6.3 -10.1°
Sets 20:37:33 0° 35° (NE) 3,448 7.1 -10.2°
